Helicity
100 61 68 62 23 12 43 54 53 56 75 82 107 99 101 110 83 86 99 85 56 38 50 83 92 98 123
59 50 54 12 -18 -28 -19 40 74 64 79 124 137 124 115 89 89 91 101 114 119 105 73 32 61 99 110
84 54 30 0 -13 -10 -5 -3 35 59 95 112 131 148 111 101 96 111 95 101 113 110 83 75 65 35 29
68 56 36 17 18 17 12 23 25 37 82 92 112 147 152 123 71 53 77 73 85 94 94 78 85 92 65
117 107 88 46 41 46 65 79 113 105 101 94 91 103 126 116 95 122 95 96 111 110 111 100 99 88 70
95 98 78 80 79 82 103 93 148 163 108 91 117 123 106 100 70 54 75 143 143 139 147 116 87 71 97
116 126 89 64 40 26 47 69 101 69 56 61 62 81 112 145 159 160 86 85 111 106 131 140 97 53 41
104 112 109 98 29 5 -22 -26 -9 27 29 19 18 43 91 143 161 178 117 106 98 113 129 105 105 66 41
34 19 -10 6 -10 -29 -10 1 -10 -4 23 14 7 41 100 161 187 146 123 112 98 104 110 117 106 267 459
33 38 31 -5 -1 -46 -51 -51 -47 -27 10 -5 -26 -48 -25 37 113 86 74 108 147 85 70 256 482 643 765
-12 -12 -19 -32 -52 -58 -73 37 -3 -4 -6 -17 -9 3 2 1 22 20 66 111 136 155 319 469 551 699 763
-29 -9 -40 -47 -50 -64 -36 31 9 7 -3 12 11 2 1 16 38 58 125 335 356 428 491 523 610 618 516
-14 -18 -36 -41 -40 -9 39 47 11 -10 -13 -7 -3 2 11 21 51 73 195 511 537 539 486 437 414 348 336
-15 -29 -48 -29 2 61 51 23 -5 -31 -47 -11 8 -3 32 64 79 100 235 328 508 552 518 329 268 282 322
-49 -29 36 75 121 88 55 18 -4 -11 -13 21 65 85 75 86 118 182 255 434 393 397 401 374 355 262 256
72 109 140 157 154 83 38 15 9 23 36 41 78 89 78 193 230 221 286 322 326 325 335 323 284 239 133
184 200 226 212 116 58 40 48 48 59 74 66 77 75 34 27 145 193 166 195 201 264 217 179 182 153 128
Wind_Speed
103 110 101 106 109 109 103 108 102 104 110 109 110 112 114 114 115 113 112 114 113 107 101 106 105 101 92
112 106 114 113 109 111 104 99 106 107 108 107 111 110 107 105 108 107 106 107 106 106 108 108 104 115 110
118 113 114 112 113 109 109 106 102 102 106 109 110 108 109 106 104 103 101 100 99 101 103 107 106 110 107
108 114 114 113 109 115 118 106 109 101 106 109 111 110 108 105 102 101 101 97 96 100 102 103 107 111 109
111 111 110 111 115 112 112 110 107 101 105 102 103 103 96 97 99 93 92 90 93 95 91 94 94 101 105
109 110 112 109 106 106 107 108 115 92 100 96 101 106 104 100 98 97 99 95 90 85 94 95 100 99 99
94 92 102 103 104 107 102 104 103 94 100 113 102 105 101 98 101 98 94 91 91 94 95 93 92 92 98
77 78 77 84 103 105 103 104 106 100 91 102 96 100 95 93 93 93 90 87 92 94 94 93 88 91 89
73 71 101 92 92 95 94 95 99 98 83 89 86 91 92 91 82 82 84 88 89 92 94 95 68 34 30
97 90 85 62 76 79 82 80 89 90 69 75 82 80 73 62 66 66 69 77 83 81 71 27 22 21 21
94 89 80 61 67 61 62 45 72 80 81 77 74 72 70 73 69 69 72 70 50 24 19 21 22 24 26
64 60 65 66 65 64 63 53 61 70 75 70 68 71 73 73 69 55 47 35 15 16 15 15 15 18 23
57 60 64 67 66 53 52 52 53 54 59 61 67 70 71 70 58 46 34 28 17 17 18 19 24 22 24
59 66 69 61 55 51 42 39 37 34 41 46 49 52 52 51 47 39 31 31 22 19 15 21 21 17 21
65 64 57 50 43 33 31 30 28 32 34 33 30 25 26 34 31 28 24 19 22 23 18 19 20 19 19
54 47 40 35 27 21 16 17 21 22 22 21 21 20 18 11 14 18 19 22 23 18 14 15 18 16 13
37 32 29 25 20 12 12 14 13 13 12 13 13 12 14 12 6 8 7 14 13 12 13 16 17 14 13
Wind_Direction
307 307 305 305 304 303 302 299 299 297 293 292 290 286 282 280 278 276 275 271 269 269 268 265 263 260 259
307 306 304 304 303 302 302 300 299 297 294 292 290 288 286 284 280 278 276 274 272 270 267 263 264 261 260
306 306 304 303 302 301 300 299 299 298 296 292 290 287 285 284 282 278 277 275 273 271 270 266 265 263 267
308 306 304 303 302 301 299 299 297 298 296 292 288 286 284 282 280 279 276 275 274 271 270 268 265 264 262
311 309 307 305 302 301 299 299 297 297 293 290 288 285 282 282 279 279 277 276 273 272 271 269 266 267 265
315 312 309 307 305 302 300 298 296 300 295 289 290 281 278 278 276 276 275 274 273 271 270 270 266 266 265
319 318 313 310 306 302 299 297 298 300 294 287 286 278 274 274 271 272 273 271 271 270 271 270 267 267 266
323 321 319 316 301 295 295 295 295 294 296 284 285 276 273 271 269 270 270 271 270 268 267 269 269 268 270
327 324 299 281 281 288 293 293 288 287 297 288 282 275 269 265 269 271 271 269 269 266 263 263 266 263 258
321 322 322 274 278 277 277 270 279 278 300 291 278 279 275 275 271 274 276 273 269 265 266 240 220 226 212
303 300 291 277 278 270 269 256 268 269 281 277 278 275 271 270 274 278 278 274 274 253 216 200 196 193 207
286 283 285 284 280 276 272 260 261 261 271 280 280 272 267 263 266 276 276 271 242 221 213 207 204 202 208
288 286 286 284 282 275 271 263 258 255 270 276 270 264 257 255 262 265 259 254 233 207 217 218 223 223 215
290 289 289 286 280 276 265 262 251 237 251 269 275 257 256 255 257 252 244 245 230 216 214 221 227 227 221
295 293 290 285 279 266 261 252 235 248 261 270 278 279 268 247 248 244 240 229 218 211 209 219 235 228 215
296 293 289 284 275 263 232 216 222 241 261 259 260 249 251 306 274 238 228 214 217 212 209 199 215 220 200
299 298 292 282 275 241 203 220 235 268 265 272 284 294 7 36 279 326 212 213 195 191 202 206 198 200 204